Regional Weather Roundup
Issued by NWS

Home | Current Version | Previous Version | Graphics & Text | Print | Product List | Glossary On
Versions: 1 2 3 4 5 6 7 8 9 10 11 12 13 14 15 16 17 18 19 20 21 22 23 24 25 26 27 28 29 30 31 32 33 34 35 36 37 38 39 40 41 42 43 44 45 46 47 48 49 50
000
ASUS44 KMEG 181510
RWRTN
TENNESSEE HOURLY STATE WEATHER ROUNDUP
NATIONAL WEATHER SERVICE MEMPHIS TN
1000 AM CDT WED OCT 18 2017

TNZ002-004-019-021-049-052-054-088>092-181600-
WEST TENNESSEE

CITY           SKY/WX    TMP DP  RH WIND       PRES   REMARKS
MEMPHIS INTL   SUNNY     63  49  60 S12       30.28R
NWS MEMPHIS      N/A     60 N/A N/A MISG        N/A
JACKSON        SUNNY     61  49  64 S9        30.30S
SOMERVILLE     SUNNY     61  50  67 S9        30.28R
COVINGTON      SUNNY     61  50  67 S8        30.29R
UNION CITY     SUNNY     61  50  67 SW9       30.29R
BOLIVAR        SUNNY     59  50  72 SE8       30.30R
PARIS          SUNNY     61  50  67 S8        30.30R
HUNTINGDON     SUNNY     61  50  67 S9        30.30R
LEXINGTON      SUNNY     59  48  67 S8        30.31S
SELMER         SUNNY     59  46  63 S9        30.31R
SAVANNAH       SUNNY     61  48  63 S7        30.31S
$$

TNZ008-025-027-028-033-062-065-066-181600-
NORTH MIDDLE TENNESSEE

CITY           SKY/WX    TMP DP  RH WIND       PRES   REMARKS
NASHVILLE      MOSUNNY   60  46  59 S3        30.35R
PORTLAND       SUNNY     61  48  63 S10       30.33S HAZE
CLARKSVILLE    SUNNY     58  47  66 S5        30.32R
SMYRNA         SUNNY     58  48  69 E3        30.36S
COOKEVILLE     SUNNY     59  46  63 S5        30.35R
GALLATIN       SUNNY     57  48  72 SE3       30.38R
CROSSVILLE     SUNNY     56  47  71 E3        30.36R
$$

TNZ061-075-076-078-094-096-097-181600-
SOUTH MIDDLE TENNESSEE

CITY           SKY/WX    TMP DP  RH WIND       PRES   REMARKS
FAYETTEVILLE   SUNNY     59  45  58 S9        30.33S
TULLAHOMA      SUNNY     59  45  58 S3        30.35R
WINCHESTER     SUNNY     61  43  51 S8          N/A
COLUMBIA       SUNNY     57  50  77 CALM      30.32S
SHELBYVILLE    SUNNY     59  48  67 VRB7      30.34S HAZE
$$

TNZ017-018-042-046-047-181600-
NORTHEAST TENNESSEE

CITY           SKY/WX    TMP DP  RH WIND       PRES   REMARKS
TRI CITIES     MOSUNNY   55  46  71 CALM      30.39R
ELIZABETHTON   SUNNY     57  45  62 VRB3      30.38F
$$

TNZ012-013-036-069-073-074-181600-
CENTRAL EAST TENNESSEE

CITY           SKY/WX    TMP DP  RH WIND       PRES   REMARKS
KNOXVILLE      CLOUDY    55  49  80 NE5       30.37R
DOWNTOWN KNOXV SUNNY     55  48  76 SE3       30.38S
GATLINBURG     SUNNY     54  45  71 CALM      30.37S
MORRISTOWN     SUNNY     57  46  67 CALM      30.37S
JACKSBORO      PTSUNNY   48  48 100 CALM      30.42S
$$

TNZ083-085-099-181600-
SOUTHEAST TENNESSEE

CITY           SKY/WX    TMP DP  RH WIND       PRES   REMARKS
CHATTANOOGA    MOSUNNY   57  46  66 CALM      30.36S
DAYTON         CLOUDY    50  50 100 CALM      30.37R FOG
$$

SKY/WX REPORTED AS FAIR MEANS FEW OR NO CLOUDS BELOW
12 THOUSAND FEET.





USA.gov is the U.S. government's official web portal to all federal, state and local government web resources and services.